カタログに戻る

FENGYUN 1C DEB

運用中SSO
NORAD 32411·DEBRIS·🇨🇳 China

打ち上げ May 10, 1999 から Taiyuan Satellite Launch Center

Loading…

次のパス (今後24時間)

TLE

最新Source: Space-Track

元期: Sep 13, 2026, 00:11 UTC

1 32411U 99025CZX 26256.00775093  .00000310  00000-0  18529-3 0  9990
2 32411  98.4180 161.7808 0122645 312.8651  46.2270 14.10170629696799

AllMySatでFENGYUN 1C DEBをリアルタイム追跡

Download on the App Store